Location: Unspecified
(0.0000°N, 0.0000°E)
Time: 22:23:24
(UTC+00:00)

Hubble Space Telescope - Pass Details

Date: 18 April 2026
Orbit: 474 x 477 km, 28.5° (Epoch: 18 April)

Event Time Altitude Azimuth Distance (km) Brightness Sun altitude
Rises 19:11:25 0° 252° (WSW) 2,509 5.3 -17.7°
Reaches altitude 10° 19:13:42 10° 260° (W) 1,631 4.3 -18.2°
Maximum altitude 19:17:13 38° 330° (NNW) 725 1.7 -19.1°
Enters shadow 19:19:09 22° 26° (NNE) 1,082 2.2 -19.6°
